Weather History for Laredo, TX

Change the Weather History Date:

Tuesday, May 22, 2012

  Actual Average Record
Temperature  
Mean Temperature 84 °F 84 °F  
Max Temperature 98 °F 95 °F 107 °F (1998)
Min Temperature 70 °F 73 °F 55 °F (1911)
Degree Days  
Heating Degree Days 0 0  
Month to date heating degree days 0 0  
Since 1 July heating degree days 674 926  
Cooling Degree Days 19 19  
Month to date cooling degree days 373 366  
Year to date cooling degree days 1298 966  
Growing Degree Days 34 (Base 50)    
Moisture  
Dew Point 59 °F    
Average Humidity 48    
Maximum Humidity 84    
Minimum Humidity 22    
Precipitation  
Precipitation 0.00 in 0.07 in 4.68 in (1977)
Month to date precipitation 1.34 1.75  
Year to date precipitation 2.61 6.13  
Sea Level Pressure  
Sea Level Pressure 29.93 in    
Wind  
Wind Speed 10 mph (SSE)    
Max Wind Speed 17 mph    
Max Gust Speed 22 mph    
Visibility 10 miles    
Events      
T = Trace of Precipitation, MM = Missing Value Source: NWS Daily Summary

Daily Weather History Graph

Daily Weather History Graph

Search for Another Location

Airport:

Trip Planner

Search our weather history database for the weather conditions in past years. The results will help you decide how hot, cold, wet, or windy it might be!

Date:

Astronomy

May. 22, 2012 Rise Set
Actual Time 6:45 AM CDT 8:23 PM CDT
Civil Twilight 6:19 AM CDT 8:49 PM CDT
Nautical Twilight 5:48 AM CDT 9:20 PM CDT
Astronomical Twilight 5:16 AM CDT 9:53 PM CDT
Moon 7:59 AM CDT (5/22) 10:01 PM CDT (5/22)
Length of Visible Light 14h 30m
Length of Day
13h 38m
Waxing Crescent, 3% of the Moon is Illuminated
May 22
Waxing Crescent
May 28
First Quarter
Jun 4
Full
Jun 11
Last Quarter
Jun 19
New

Hourly Weather History & Observations

Time (CDT) Temp. Heat Index Dew Point Humidity Pressure Visibility Wind Dir Wind Speed Gust Speed Precip Events Conditions
12:56 AM 77.0 °F - 63.0 °F 62% 30.03 in 10.0 mi SE 9.2 mph - N/A   Clear
1:56 AM 74.8 °F - 63.0 °F 66% 30.02 in 10.0 mi South 8.1 mph - N/A   Clear
2:56 AM 73.9 °F - 63.9 °F 71% 30.02 in 10.0 mi South 12.7 mph - N/A   Clear
3:56 AM 73.4 °F - 64.4 °F 73% 30.05 in 10.0 mi South 10.4 mph - N/A   Clear
4:56 AM 72.9 °F - 64.9 °F 76% 30.01 in 10.0 mi SSE 9.2 mph - N/A   Clear
5:56 AM 72.0 °F - 64.9 °F 78% 30.01 in 10.0 mi SE 8.1 mph - 0.00 in   Clear
6:56 AM 70.0 °F - 64.9 °F 84% 30.01 in 10.0 mi SE 6.9 mph - N/A   Clear
7:56 AM 72.0 °F - 64.9 °F 78% 30.02 in 10.0 mi SSE 9.2 mph - N/A   Clear
8:56 AM 77.0 °F - 66.9 °F 71% 30.02 in 10.0 mi South 11.5 mph - N/A   Clear
9:56 AM 81.9 °F 83.9 °F 65.8 °F 58% 30.01 in 10.0 mi South 9.2 mph - N/A   Clear
10:56 AM 86.9 °F 87.0 °F 61.0 °F 42% 30.00 in 10.0 mi SSW 12.7 mph - N/A   Clear
11:56 AM 88.9 °F 88.0 °F 59.0 °F 36% 29.99 in 10.0 mi South 11.5 mph - N/A   Clear
12:56 PM 90.9 °F 89.2 °F 55.9 °F 31% 29.96 in 10.0 mi Variable 5.8 mph - N/A   Clear
1:56 PM 92.8 °F 91.1 °F 55.9 °F 29% 29.93 in 10.0 mi South 10.4 mph 16.1 mph N/A   Clear
2:56 PM 95.0 °F 93.0 °F 54.9 °F 26% 29.89 in 10.0 mi South 10.4 mph - N/A   Clear
3:56 PM 95.9 °F 93.6 °F 54.0 °F 24% 29.86 in 10.0 mi Variable 4.6 mph - N/A   Clear
4:56 PM 97.0 °F - 52.9 °F 23% 29.83 in 10.0 mi SSE 10.4 mph - N/A   Clear
5:56 PM 95.9 °F - 52.0 °F 23% 29.81 in 10.0 mi East 5.8 mph - N/A   Clear
6:56 PM 95.9 °F - 50.9 °F 22% 29.81 in 10.0 mi SSE 10.4 mph - N/A   Clear
7:56 PM 93.9 °F - 50.9 °F 23% 29.79 in 10.0 mi SSE 10.4 mph - N/A   Clear
8:56 PM 88.9 °F 87.3 °F 55.9 °F 33% 29.79 in 10.0 mi SSE 11.5 mph - N/A   Clear
9:56 PM 86.9 °F 85.1 °F 54.9 °F 33% 29.79 in 10.0 mi SE 12.7 mph - N/A   Clear
10:56 PM 84.9 °F 84.2 °F 57.9 °F 40% 29.81 in 10.0 mi SSE 12.7 mph - N/A   Clear
11:56 PM 81.9 °F 81.6 °F 56.8 °F 42% 29.81 in 10.0 mi SSE 13.8 mph 21.9 mph N/A   Clear